GW0791 Weather Reports


time (UTC)temp
C
wind
direction
speed
KPH
gust
KPH
rain 1hr
cm
rain 24hr
cm
rain mn
cm
humidity
%
barometer
mb
20260505073045 13 360 0.0 4.8 0.00 0.00 0.00 86 1010.7
20260505071537 13 360 0.0 4.8 0.00 0.00 0.00 88 1010.7
20260505070041 12 360 0.0 8.0 0.00 0.00 0.00 90 1010.6
20260505064533 12 360 0.0 0.0 0.00 0.00 0.00 91 1010.8
20260505063029 12 360 0.0 3.2 0.00 0.00 0.00 91 1010.9
20260505061558 12 360 0.0 0.0 0.00 0.00 0.00 91 1010.9
20260505060058 12 360 0.0 0.0 0.00 0.00 0.00 91 1010.9
20260505054535 12 360 0.0 0.0 0.00 0.00 0.00 91 1010.9
20260505053030 12 360 0.0 0.0 0.00 0.00 0.00 90 1010.9
20260505051525 12 360 0.0 0.0 0.00 0.00 0.00 90 1010.9
20260505041531 12 360 0.0 0.0 0.00 0.00 0.00 87 1010.2
20260505040032 13 360 0.0 0.0 0.00 0.00 0.00 87 1010.0
20260505034523 13 344 0.0 0.0 0.00 0.00 0.00 86 1010.0
20260505033021 13 344 0.0 0.0 0.00 0.00 0.00 85 1010.1
20260505031533 13 360 0.0 0.0 0.00 0.00 0.00 85 1010.0
20260505030016 14 360 0.0 0.0 0.00 0.00 0.00 84 1010.1
20260505024516 14 345 0.0 0.0 0.00 0.00 0.00 83 1010.0
20260505023015 15 360 0.0 0.0 0.00 0.00 0.00 82 1010.0
20260505021515 15 360 0.0 0.0 0.00 0.00 0.00 81 1009.8
20260505020013 16 343 0.0 0.0 0.00 0.00 0.00 78 1009.7
20260505014512 16 360 0.0 0.0 0.00 0.00 0.00 77 1009.7
20260505013011 17 360 0.0 0.0 0.00 0.00 0.00 75 1009.5
20260505011511 18 360 0.0 0.0 0.00 0.00 0.00 74 1009.5
20260505010009 18 360 0.0 0.0 0.00 0.00 0.00 71 1009.5
20260505004508 19 360 0.0 0.0 0.00 0.00 0.00 70 1009.4
20260505003007 20 346 0.0 0.0 0.00 0.00 0.00 68 1009.3
20260505001507 21 345 0.0 0.0 0.00 0.00 0.00 67 1009.3
20260505000006 21 345 0.0 0.0 0.00 0.00 0.00 64 1009.4
20260504234503 22 360 0.0 3.2 0.00 0.00 0.00 61 1009.5
20260504233002 23 342 0.0 4.8 0.00 0.00 0.00 55 1009.3
20260504231502 23 60 0.0 6.4 0.00 0.00 0.00 52 1009.3
20260504230034 24 43 0.0 9.7 0.00 0.00 0.00 50 1009.2
20260504224534 24 222 3.2 6.4 0.00 0.00 0.00 52 1009.3
20260504223037 24 29 0.0 8.0 0.00 0.00 0.00 53 1009.4
20260504221527 24 183 1.6 11.3 0.00 0.00 0.00 50 1009.7
20260504220024 25 169 1.6 11.3 0.00 0.00 0.00 51 1009.7
20260504214526 25 278 3.2 9.7 0.00 0.00 0.00 50 1009.9
20260504213032 25 190 0.0 19.3 0.00 0.00 0.00 49 1009.9
20260504211524 25 218 3.2 9.7 0.00 0.00 0.00 50 1009.9
20260504210016 25 265 3.2 9.7 0.00 0.00 0.00 51 1010.0
20260504204532 25 130 0.0 8.0 0.00 0.00 0.00 52 1010.1
20260504203007 23 295 3.2 17.7 0.00 0.00 0.00 55 1010.3
20260504201506 23 343 6.4 16.1 0.00 0.00 0.00 55 1010.5
20260504200003 23 65 1.6 16.1 0.00 0.00 0.00 55 1010.8
20260504194603 23 290 3.2 17.7 0.00 0.00 0.00 56 1010.9
20260504193056 22 96 3.2 12.9 0.00 0.00 0.00 57 1011.0
20260504191557 21 344 4.8 14.5 0.00 0.00 0.00 60 1011.4
20260504190050 21 58 4.8 12.9 0.00 0.00 0.00 61 1011.5
20260504184549 19 11 3.2 9.7 0.00 0.00 0.00 68 1012.1
20260504183046 20 154 1.6 14.5 0.00 0.00 0.00 62 1013.1
20260504181547 21 360 1.6 20.9 0.00 0.00 0.00 56 1012.4
20260504180046 22 133 4.8 14.5 0.00 0.00 0.00 53 1012.0
20260504174545 22 207 4.8 17.7 0.00 0.00 0.00 54 1011.7
20260504173037 21 17 3.2 9.7 0.00 0.00 0.00 62 1011.8
20260504171535 20 360 3.2 12.9 0.00 0.00 0.00 64 1012.1
20260504120105 8 360 1.6 6.4 0.00 0.00 0.00 90 1014.9
20260504081529 6 360 0.0 0.0 0.00 0.00 0.00 85 1015.3